DW0487 Weather Reports


Display with metric or nautical units.
time (UTC)temp
F
wind
direction
speed
MPH
gust
MPH
rain 1hr
in
rain 24hr
in
rain mn
in
humidity
%
barometer
mb
20260906003004 54 226 0.0 3.0 0.00 0.01 0.00 95 1024.7
20260906001502 55 188 1.0 3.0 0.00 0.01 0.00 95 1024.6
20260906000001 55 184 0.0 0.0 0.00 0.01 0.00 94 1024.7
20260905234614 55 229 0.0 2.0 0.00 0.01 0.00 94 1024.5
20260905233059 55 278 0.0 0.0 0.00 0.01 0.00 93 1024.5
20260905231558 55 278 0.0 0.0 0.00 0.01 0.00 94 1024.6
20260905230056 55 278 0.0 0.0 0.00 0.01 0.00 93 1024.6
20260905224555 56 279 0.0 2.0 0.00 0.01 0.00 93 1024.6
20260905223053 57 5 0.0 0.0 0.00 0.01 0.00 93 1024.6
20260905221552 57 5 0.0 0.0 0.00 0.01 0.00 93 1024.6
20260905220052 58 17 0.0 0.0 0.00 0.01 0.00 93 1024.5
20260905214602 58 17 0.0 1.0 0.00 0.01 0.01 92 1024.5
20260905213047 59 75 0.0 0.0 0.00 0.01 0.01 91 1024.2
20260905211546 59 349 0.0 0.0 0.00 0.01 0.01 91 1024.1
20260905210145 60 115 1.0 2.0 0.00 0.01 0.01 91 1024.1
20260905204543 60 306 0.0 1.0 0.00 0.01 0.01 91 1024.0
20260905203043 60 31 2.0 3.0 0.00 0.01 0.01 91 1023.9
20260905201542 60 306 0.0 0.0 0.00 0.01 0.01 90 1024.0
20260905200045 60 310 1.0 2.0 0.00 0.01 0.01 89 1023.8
20260905194539 60 351 0.0 0.0 0.00 0.01 0.01 89 1023.7
20260905193038 60 285 0.0 2.0 0.00 0.01 0.01 89 1023.6
20260905191539 61 212 0.0 4.0 0.00 0.01 0.01 86 1023.4
20260905190036 61 286 2.0 5.0 0.00 0.01 0.01 87 1023.5
20260905184538 61 234 2.0 5.0 0.00 0.01 0.01 89 1023.3
20260905183037 61 212 1.0 5.0 0.00 0.01 0.01 88 1023.1
20260905181532 62 250 2.0 4.0 0.00 0.01 0.01 88 1022.8
20260905180030 62 276 1.0 3.0 0.00 0.01 0.01 87 1022.8
20260905174536 63 217 1.0 3.0 0.00 0.01 0.01 85 1022.8
20260905173029 63 201 0.0 4.0 0.00 0.01 0.01 86 1022.5
20260905171528 63 223 0.0 2.0 0.00 0.01 0.01 85 1022.4
20260905170128 63 142 0.0 2.0 0.00 0.01 0.01 86 1022.3
20260905164535 63 269 1.0 3.0 0.00 0.01 0.01 86 1022.2
20260905163034 63 105 0.0 2.0 0.00 0.01 0.01 85 1022.0
20260905161532 63 53 0.0 0.0 0.00 0.01 0.01 84 1022.0
20260905160129 63 61 0.0 4.0 0.00 0.01 0.01 84 1021.7
20260905154541 64 69 1.0 3.0 0.01 0.01 0.01 83 1021.7
20260905153034 63 47 1.0 4.0 0.01 0.01 0.01 84 1021.7
20260905151534 63 53 0.0 4.0 0.01 0.01 0.01 84 1021.6
20260905150135 62 44 2.0 5.0 0.01 0.01 0.01 85 1021.7
20260905144540 62 355 0.0 5.0 0.00 0.00 0.00 85 1021.7
20260905143025 63 59 2.0 4.0 0.00 0.00 0.00 86 1021.7
20260905141538 62 15 2.0 7.0 0.00 0.00 0.00 84 1021.7
20260905140020 63 41 5.0 10.0 0.00 0.00 0.00 80 1021.6
20260905134518 64 38 5.0 12.0 0.00 0.00 0.00 80 1021.3
20260905133016 63 9 4.0 13.0 0.00 0.00 0.00 82 1021.4
20260905131515 63 24 5.0 12.0 0.00 0.00 0.00 80 1021.3
20260905130117 64 15 6.0 16.0 0.00 0.00 0.00 78 1021.2
20260905124527 63 75 6.0 21.0 0.00 0.00 0.00 78 1021.2
20260905123025 64 86 12.0 21.0 0.00 0.00 0.00 79 1020.7
20260905121523 65 74 13.0 25.0 0.00 0.00 0.00 78 1020.5
20260905120120 66 55 12.0 20.0 0.00 0.00 0.00 78 1019.9
20260905114623 67 28 11.0 19.0 0.00 0.00 0.00 76 1019.7
20260905113048 68 40 11.0 16.0 0.00 0.00 0.00 75 1019.2
20260905111553 69 49 5.0 14.0 0.00 0.00 0.00 75 1019.1
20260905110048 70 36 4.0 10.0 0.00 0.00 0.00 70 1019.0
20260905104544 69 34 3.0 9.0 0.00 0.00 0.00 75 1019.1
20260905103041 67 25 3.0 9.0 0.00 0.00 0.00 79 1019.5
20260905101538 64 317 2.0 6.0 0.00 0.00 0.00 80 1019.3
20260905100017 63 35 3.0 6.0 0.00 0.00 0.00 83 1019.5
20260905094514 62 355 2.0 4.0 0.00 0.00 0.00 85 1019.5
20260905093014 61 61 1.0 5.0 0.00 0.00 0.00 84 1019.6
20260905091513 60 34 3.0 5.0 0.00 0.00 0.00 87 1019.6
20260905084536 59 5 2.0 7.0 0.00 0.00 0.00 88 1019.5
20260905083035 59 355 1.0 3.0 0.00 0.00 0.00 87 1019.4
20260905081535 59 53 2.0 5.0 0.00 0.00 0.00 87 1019.1
20260905080020 58 28 3.0 4.0 0.00 0.00 0.00 87 1019.1
20260905074516 58 68 2.0 5.0 0.00 0.00 0.00 86 1019.0
20260905073012 58 27 3.0 5.0 0.00 0.00 0.00 86 1018.9
20260905071512 58 5 4.0 6.0 0.00 0.00 0.00 85 1019.0
20260905070031 59 65 4.0 11.0 0.00 0.00 0.00 84 1019.4
20260905064528 59 5 5.0 12.0 0.00 0.00 0.00 83 1019.0
20260905063026 59 28 6.0 16.0 0.00 0.00 0.00 83 1019.0
20260905061522 59 42 7.0 17.0 0.00 0.00 0.00 83 1019.0
20260905060021 59 67 9.0 17.0 0.00 0.00 0.00 83 1018.6
20260905054517 60 40 6.0 15.0 0.00 0.00 0.00 82 1018.4
20260905053015 62 39 9.0 16.0 0.00 0.00 0.00 79 1018.1
20260905051512 62 46 7.0 17.0 0.00 0.00 0.00 80 1017.9
20260905050016 63 59 11.0 20.0 0.00 0.00 0.00 81 1017.5
20260905044507 62 51 6.0 14.0 0.00 0.00 0.00 78 1017.0
20260905043006 58 37 5.0 9.0 0.00 0.00 0.00 85 1016.8
20260905041504 57 11 3.0 5.0 0.00 0.00 0.00 87 1016.4
20260905040004 57 20 2.0 3.0 0.00 0.00 0.00 87 1016.4
20260905034502 56 88 1.0 4.0 0.00 0.00 0.00 88 1016.3
20260905033008 57 251 0.0 3.0 0.00 0.00 0.00 87 1016.2
20260905031504 56 272 0.0 4.0 0.00 0.00 0.00 88 1016.1
20260905030004 56 309 0.0 4.0 0.00 0.00 0.00 88 1016.1
20260905024600 56 333 1.0 4.0 0.00 0.00 0.00 88 1016.1
20260905023127 56 328 1.0 8.0 0.00 0.00 0.00 86 1016.2
20260905021601 56 243 2.0 5.0 0.00 0.00 0.00 88 1016.2
20260905020103 56 355 0.0 4.0 0.00 0.00 0.00 88 1016.4
20260905014557 56 132 1.0 3.0 0.00 0.00 0.00 88 1016.3
20260905013056 57 158 2.0 4.0 0.00 0.00 0.00 87 1016.3
20260905011559 57 84 0.0 3.0 0.00 0.00 0.00 87 1016.3
20260905010054 57 128 1.0 2.0 0.00 0.00 0.00 87 1016.4
20260905004553 57 243 1.0 3.0 0.00 0.00 0.00 86 1016.5